Girls Team Scores

Team Scores
1	MANLIUS	89	2-5-16-20-46(96)(139)	1:32:38	18:32	1:19.1
2	N NAPERVILLE	94	3-4-11-33-43(82)(91)	1:32:46	18:34	1:15.2
3	VAIL VALLEY	162	24-26-30-35-47(56)(123)	1:35:00	19:00	0:26.4
4	KELLER	205	14-22-23-70-76(121)(134)	1:35:37	19:08	1:06.1
5	BOZEMAN	210	21-29-32-36-92(108)(144)	1:35:56	19:12	1:11.8
6	DENVER	232	10-25-50-54-93(113)(114)	1:35:54	19:11	1:32.3
7	WAYZATA	235	12-17-34-74-98(126)(128)	1:36:08	19:14	1:27.2
8	TEMECULA	237	9-45-53-57-73(125)	1:36:10	19:14	1:14.6
9	CLAREMONT	245*	19-27-44-75-80(94)(136)	1:36:23	19:17	1:03.7
10	BROOMFIELD	245*	31-39-41-51-83(95)(116)	1:36:32	19:19	0:44.4
11	EDINA	268	13-38-65-68-84(129)(141)	1:36:46	19:22	1:13.0
12	CLOVIS	281	6-8-59-101-107(112)(124)	1:35:57	19:12	2:01.2
13	LIVERPOOL	285	7-42-64-72-100(105)(152)	1:36:37	19:20	1:55.2
14	KINETIC	310	1-62-63-78-106(109)(119)	1:36:21	19:17	2:41.6
15	PORTLAND	336	15-48-69-87-117(133)(146)	1:37:49	19:34	1:43.7
16	RALEIGH	349	28-58-71-90-102(142)(151)	1:38:10	19:38	1:04.9
17	BLACKSBURG	366	18-52-77-99-120(132)(148)	1:38:15	19:39	1:44.5
18	YORKVILLE	376	55-60-61-97-103(118)(135)	1:38:31	19:43	0:42.2
19	LOUISVILLE	413	37-40-104-110-122(137)(153)	1:39:03	19:49	1:22.6
20	CARROLL	460	67-79-88-111-115(130)(149)	1:39:52	19:59	0:45.8
21	HUNTERDON	469	49-66-89-127-138(147)(150)	1:40:09	20:02	1:32.1
22	WOOLWICH	523	81-85-86-131-140(143)(145)	1:41:01	20:13	1:02.0